{"data":{"norad_id":56722,"intl_designator":"2023-068N","name":"ONEWEB-0694","alt_names":[],"object_type":"PAYLOAD","status":"ACTIVE","operator":null,"country":"UK","launch_date":"2023-05-20","launch_site_code":"AFWTR","launch_vehicle":null,"mission":null,"orbit_class":"UNKNOWN","rcs_meters":null,"size_class":null,"mass_kg":null,"dimensions":null,"purposes":["comms"],"wikipedia_slug":null,"has_3d_model":false,"image_url":null,"decayed_at":null,"tle_current":{"epoch":"2026-09-19T16:11:30.198048Z","epoch_age_seconds":93332,"freshness":"FRESH","line1":"1 56722U 23068N   26262.67465507 -.00000037  00000+0 -13022-3 0  9991","line2":"2 56722  87.9152 210.0057 0001797  89.1699 270.9637 13.16595297164202","mean_motion":13.16595297,"eccentricity":0.0001797,"inclination_deg":87.9152,"raan_deg":210.0057,"arg_perigee_deg":89.1699,"mean_anomaly_deg":270.9637,"bstar":-0.00013022,"rev_number":16420,"period_min":109.37301715122,"perigee_km":1196.3912901707,"apogee_km":1199.1140649208,"semimajor_km":7575.8896775457,"source":"CELESTRAK","updated_at":"2026-09-20T09:00:44.796808Z"}}}